Theta_e
313 313 311 310 309 308 308 307 306 306 306 306 306 306 306 306 307 307 307 307 309 311 312 314 315 315 315 315 315 315 317 319 317 316 314 312 311 309 309 311 311 310 311 314 316 316 316 317 318 317 317 320 320 320 322 321 320 321 324 321 317 317 317 317 318 317 317 317 317 316 316 315 315 315 314 314 314 314 315 314 314 314 312 313 313 313 312 311
313 312 311 310 309 309 309 309 308 308 307 307 307 307 306 307 307 307 308 307 308 311 312 315 316 316 316 315 315 315 316 320 319 317 315 313 311 310 311 312 312 310 311 314 315 315 316 316 316 317 317 319 320 320 321 321 319 321 322 320 318 318 317 317 317 316 316 316 316 316 315 314 314 314 313 314 315 315 314 314 313 312 311 312 313 312 311 310
314 312 311 310 310 310 310 310 309 309 308 308 308 307 307 307 308 308 308 308 309 311 312 315 316 316 316 315 316 314 316 322 319 316 316 315 313 311 312 314 314 311 310 313 313 314 314 314 316 317 317 318 320 319 320 320 320 320 320 320 319 317 317 316 316 316 315 315 315 315 315 314 313 313 313 313 314 314 313 312 312 311 310 311 311 310 310 309
314 312 311 310 310 310 310 310 310 310 310 309 309 308 308 308 308 308 309 309 310 311 312 315 316 316 316 316 316 315 319 324 319 315 316 316 315 313 313 314 315 312 311 312 312 313 314 316 316 317 318 319 320 319 319 319 319 319 318 319 318 316 317 316 315 315 314 315 314 314 314 314 313 313 313 313 314 314 312 312 310 310 310 310 309 309 309 308
314 312 311 310 310 310 311 311 311 312 311 310 309 309 309 308 309 308 310 311 311 311 312 315 316 315 316 316 316 317 321 322 318 316 315 315 316 315 315 315 315 313 312 313 313 315 316 317 317 318 319 318 319 319 319 317 316 317 318 318 316 316 317 315 314 315 314 314 313 314 314 313 313 313 313 313 314 312 311 311 310 310 310 308 307 307 308 307
314 313 311 310 310 311 311 312 312 312 312 312 310 310 309 308 309 309 311 313 312 311 312 315 316 315 316 316 317 320 322 320 317 316 314 314 316 316 316 316 315 315 314 314 315 317 317 317 317 318 317 316 318 318 317 316 315 316 317 317 315 315 315 314 314 314 313 313 313 314 313 312 313 313 312 312 312 312 311 310 310 309 308 307 306 306 306 305
314 313 311 311 310 311 311 312 312 312 313 312 311 310 309 309 309 309 311 313 313 311 313 315 315 316 316 318 321 322 321 319 316 314 314 315 316 316 316 315 315 315 315 315 317 317 317 317 316 316 316 317 318 317 317 316 315 315 317 316 314 314 314 314 313 313 313 312 312 313 312 313 313 313 312 312 312 311 310 309 309 308 307 306 305 304 304 304
315 313 312 311 310 311 312 312 312 313 313 313 312 311 310 309 309 309 310 312 315 313 314 315 315 316 315 319 324 322 320 319 315 313 314 315 316 316 315 315 314 314 315 316 316 316 317 317 316 316 316 317 317 316 316 315 315 317 317 316 314 314 314 313 313 312 312 312 312 312 313 313 312 312 312 312 311 310 310 308 307 306 305 305 304 303 303 303
315 314 312 311 311 311 312 312 312 313 313 313 313 312 311 310 309 309 310 312 316 315 315 315 315 316 315 320 324 321 319 317 314 314 314 315 316 315 314 314 313 315 315 316 316 316 317 316 316 316 316 317 316 315 315 315 315 316 315 314 314 314 313 312 312 312 312 311 311 312 313 313 311 312 312 311 311 310 308 307 305 305 304 304 303 303 303 302
315 314 312 311 311 312 312 312 312 313 313 313 313 313 312 311 309 309 310 312 316 316 315 315 316 315 316 321 322 321 318 314 314 314 313 315 315 313 313 313 313 315 316 316 316 315 315 316 316 315 315 317 315 314 315 314 315 314 313 313 313 314 313 312 312 312 312 310 310 311 312 313 311 312 313 311 310 309 307 306 305 304 304 303 303 302 303 302
315 314 312 311 311 312 312 312 312 313 313 313 315 315 314 312 311 310 310 312 315 316 315 316 315 317 319 320 320 320 316 313 314 313 312 314 314 313 313 312 312 315 316 316 317 315 314 316 315 315 316 316 314 315 315 313 313 313 312 313 313 313 312 312 312 312 312 311 310 311 312 312 312 312 313 311 310 309 307 305 304 304 303 303 302 302 302 302
315 314 312 311 312 312 312 311 312 312 313 314 316 318 315 312 312 312 310 311 315 316 315 316 316 318 321 318 318 317 314 313 314 312 312 312 313 313 312 311 312 313 315 317 318 315 313 315 314 314 316 314 314 315 314 312 312 311 311 313 314 313 312 312 312 312 312 310 310 311 311 312 313 313 312 311 309 308 306 305 304 303 303 302 302 301 301 301
315 314 312 311 312 312 312 311 312 312 313 314 316 319 315 312 313 313 311 311 315 316 314 315 315 317 320 318 315 314 313 312 313 313 312 312 314 314 312 311 311 312 313 315 317 313 311 312 313 314 314 313 314 313 311 310 311 312 312 313 314 313 312 313 312 312 312 310 310 311 309 311 313 313 312 311 309 307 305 304 303 303 302 301 301 301 300 301
315 314 312 311 312 312 311 311 311 312 313 314 316 320 317 313 314 314 313 311 315 317 315 315 315 317 319 317 314 314 313 313 313 314 312 311 314 316 314 311 311 311 312 313 313 311 310 312 313 314 313 313 313 312 312 312 312 314 313 313 315 313 312 314 312 312 312 311 311 310 308 309 311 312 311 310 308 306 304 303 302 302 301 301 301 300 300 300
315 313 312 312 312 312 311 311 311 311 313 314 315 320 318 315 314 314 313 313 315 316 315 315 316 319 319 315 315 314 313 315 315 313 310 310 312 316 316 312 312 311 311 312 311 309 310 312 313 314 313 312 312 312 314 314 314 315 313 313 315 312 312 314 312 311 312 311 311 310 307 308 310 311 310 308 306 305 303 303 302 301 301 301 300 300 299 299
314 313 312 312 312 312 311 310 310 311 313 313 317 320 318 314 314 314 313 314 316 316 316 318 317 319 319 316 315 315 315 316 315 311 310 309 310 313 314 312 313 312 311 312 310 309 311 312 313 314 313 312 312 313 314 313 314 316 313 312 313 312 311 312 312 312 312 311 310 310 309 310 311 310 308 307 305 304 303 302 301 301 301 300 300 299 299 299
314 312 312 312 312 312 311 310 309 310 312 314 317 321 318 315 315 314 313 314 318 316 316 319 317 317 318 316 315 316 316 316 314 311 310 309 309 310 311 313 315 313 313 312 310 311 312 312 313 313 313 313 312 313 313 311 312 314 314 312 312 311 310 310 311 312 311 310 310 310 311 311 310 309 307 306 304 303 303 302 301 300 300 300 299 299 298 298
314 312 312 312 312 312 311 310 308 308 312 314 318 320 317 316 316 314 314 315 319 319 317 318 319 320 318 316 316 317 316 315 313 311 311 310 308 309 310 312 313 313 314 314 313 314 312 313 314 314 314 314 312 312 311 312 313 313 313 311 310 310 309 309 310 311 311 310 309 310 310 310 308 308 306 305 304 303 302 301 301 300 299 299 299 298 298 297
314 313 311 312 312 312 312 309 307 307 310 313 317 319 315 315 318 315 315 316 320 322 321 319 319 320 319 316 316 316 314 313 312 312 312 310 309 310 311 311 312 313 314 314 315 313 311 312 314 314 314 312 310 311 312 312 312 311 311 310 310 311 310 310 311 311 310 309 309 309 308 308 308 308 306 305 303 303 302 301 300 300 299 299 298 297 297 297
314 313 311 312 311 311 311 309 307 306 307 310 314 318 313 313 318 317 314 315 318 318 318 318 316 317 318 317 317 315 313 312 312 313 312 309 309 311 312 311 314 316 315 314 313 312 311 312 314 314 312 309 310 312 311 311 310 309 310 310 311 311 310 311 312 311 310 308 308 308 308 307 307 308 306 304 303 302 301 300 300 299 298 298 297 297 297 297
314 313 312 312 311 311 310 307 306 306 306 307 309 312 311 310 314 315 312 313 317 316 316 316 314 316 317 316 316 313 312 313 312 314 311 308 310 312 312 311 313 316 315 313 312 313 313 313 314 314 310 308 310 311 310 309 309 309 310 311 311 311 311 311 311 311 309 308 308 307 307 307 307 307 305 304 302 301 300 299 299 298 298 297 297 297 297 297
314 313 312 312 311 310 308 305 306 306 307 307 310 314 312 310 311 310 310 315 318 316 316 316 314 315 315 315 313 310 312 314 313 314 310 309 312 312 311 312 312 314 314 312 313 313 313 314 313 310 308 309 309 309 309 309 310 310 311 312 311 311 311 311 311 310 308 307 307 307 307 307 307 307 305 304 302 301 300 299 298 298 297 297 297 296 296 296
314 312 312 312 310 308 305 305 306 306 306 306 311 315 311 308 310 309 311 317 319 317 316 316 316 316 315 314 311 310 313 313 312 313 309 309 312 311 311 312 311 314 313 312 312 311 312 312 310 308 309 310 310 310 310 310 310 311 312 312 311 311 311 311 310 309 307 307 308 307 307 307 307 307 305 303 302 301 299 299 299 298 297 297 297 296 296 296
315 312 312 311 309 307 304 304 306 305 305 305 306 308 307 308 311 312 315 319 319 318 316 315 316 317 315 313 310 311 313 311 310 310 309 309 310 310 311 310 310 314 313 311 309 309 310 310 308 309 310 310 311 311 311 311 310 310 312 313 312 311 310 310 309 308 306 308 308 306 306 306 308 307 305 303 302 300 299 298 298 298 297 297 297 296 296 296
315 311 311 310 309 306 302 307 308 302 307 311 305 303 306 309 311 311 315 319 319 319 317 316 317 317 314 312 312 311 311 310 310 309 309 309 309 308 310 308 309 313 314 310 308 309 310 309 308 311 311 311 312 311 312 312 309 308 312 312 310 309 309 308 308 307 307 307 307 305 304 306 308 308 306 305 303 300 298 298 297 297 297 296 296 296 296 296
315 311 311 309 308 305 305 313 310 302 312 316 305 301 304 307 310 309 314 318 320 321 320 318 318 317 313 313 313 311 312 312 308 308 308 307 307 307 309 310 309 310 311 309 308 309 308 307 309 312 312 313 313 311 312 312 308 309 310 308 307 308 308 307 307 307 307 306 306 304 304 305 306 307 307 305 303 300 298 298 297 297 296 296 295 295 295 295
316 312 310 308 306 305 308 312 307 304 313 313 304 299 303 308 309 310 316 320 319 320 320 318 317 315 313 313 312 311 315 313 307 307 306 306 307 307 309 311 310 309 308 307 308 309 308 308 310 311 311 312 311 310 312 311 309 309 308 305 306 306 306 306 306 307 307 306 305 304 305 305 305 305 307 304 301 299 298 297 297 296 296 295 295 295 295 294
317 313 310 309 303 302 305 305 307 311 309 304 301 301 305 309 309 313 320 319 318 319 319 316 313 312 313 311 310 311 313 312 311 308 304 304 306 306 308 310 308 308 307 306 309 310 309 310 311 311 310 309 309 310 310 310 309 307 305 304 304 304 305 307 307 307 306 305 304 304 305 306 306 307 307 304 302 300 298 297 297 296 295 295 295 295 294 294
318 314 310 308 302 302 303 301 306 310 303 299 302 304 307 309 311 318 320 318 319 319 315 315 313 312 313 312 311 311 310 311 313 309 304 305 306 305 307 307 306 307 306 305 307 308 308 307 307 308 309 308 308 307 307 308 308 305 304 305 306 306 307 308 307 305 304 303 304 305 305 305 306 307 307 305 303 301 298 297 296 296 295 295 294 294 294 294
318 315 311 307 305 305 303 302 303 303 300 300 304 306 308 311 315 319 319 318 320 318 313 314 315 315 314 314 314 312 311 312 311 307 306 306 305 305 305 305 305 306 307 307 307 308 306 305 305 307 308 308 306 305 306 306 305 304 305 307 307 307 307 305 304 303 303 304 305 305 305 304 304 304 305 303 301 299 297 296 296 295 295 294 294 294 294 293
317 317 311 306 305 303 305 310 305 299 300 302 306 307 310 316 317 317 318 316 317 318 315 314 316 315 314 316 317 315 314 314 310 309 309 306 306 307 306 306 307 306 308 308 308 308 307 307 308 307 306 307 306 306 307 306 305 305 306 305 305 305 305 304 304 303 303 304 306 304 303 302 301 302 301 299 298 297 296 295 295 295 294 294 294 294 293 293
316 317 312 306 303 300 305 311 305 299 301 303 306 310 313 318 318 315 317 316 316 319 318 317 317 317 316 315 316 315 315 315 311 309 310 309 309 309 309 309 309 310 313 311 309 309 309 309 308 307 305 306 308 308 308 308 306 305 305 304 304 305 304 305 305 304 304 305 304 302 300 299 299 300 299 298 296 296 295 295 295 294 294 294 294 293 293 293
316 317 313 308 304 301 302 303 300 300 302 304 309 313 314 319 320 319 319 317 319 320 318 318 317 316 316 315 316 315 313 314 312 309 308 308 308 309 309 307 307 310 313 311 309 309 311 310 307 306 306 306 308 308 308 308 305 304 304 303 303 303 303 304 304 304 305 305 302 300 298 297 299 300 300 297 296 295 295 295 295 294 293 293 293 293 293 293
316 317 314 311 308 303 300 299 300 301 303 307 312 313 318 320 319 321 323 320 319 316 315 316 315 315 315 315 316 314 313 314 312 308 308 307 308 309 309 306 305 307 308 307 308 308 311 312 309 307 306 305 307 306 305 305 303 302 303 302 302 303 302 302 302 302 303 303 301 299 298 298 300 300 299 297 295 295 295 295 294 294 294 293 293 293 293 293
316 316 315 313 310 306 301 300 302 303 305 310 309 312 319 320 317 319 320 319 318 315 314 314 314 316 316 315 315 312 312 315 310 307 308 308 309 311 310 308 306 306 307 308 309 308 309 311 309 304 303 303 304 303 302 303 303 302 302 301 301 302 301 301 301 302 301 299 299 298 298 299 300 299 297 296 295 295 295 295 294 293 293 293 293 293 292 292
315 315 315 313 310 306 303 302 302 304 309 310 307 313 317 317 317 317 316 316 317 317 317 315 315 317 317 317 315 310 310 312 309 308 309 308 309 311 309 309 307 306 307 308 310 310 309 311 307 302 301 300 300 301 301 303 304 301 300 301 300 299 300 299 299 300 300 298 299 299 299 300 300 299 297 296 296 295 295 294 293 293 293 293 292 292 292 292
314 313 313 312 310 307 304 303 304 307 311 309 308 314 316 316 316 316 316 314 313 315 316 315 316 317 317 317 317 312 309 310 309 309 311 310 310 310 308 307 307 307 307 307 308 309 308 309 306 304 303 300 298 299 300 300 301 301 300 300 298 297 297 296 295 296 297 298 300 300 299 299 298 298 298 296 296 296 295 294 293 293 293 292 292 292 292 292
312 309 310 312 312 310 305 303 306 310 311 306 308 313 314 315 314 314 316 314 313 314 314 315 316 316 317 317 318 313 309 312 312 308 310 312 311 309 308 306 306 305 304 304 305 306 305 306 307 305 303 300 298 300 300 298 299 299 299 297 296 296 296 295 295 296 297 298 299 299 298 298 298 298 298 297 296 295 294 293 293 293 292 292 292 292 291 291
309 308 311 313 312 309 304 305 309 312 308 306 310 313 313 314 312 313 314 313 314 314 314 315 315 316 317 317 317 314 311 313 313 310 311 313 312 309 306 307 306 303 301 302 304 305 303 304 305 303 301 299 298 299 300 299 298 297 297 296 296 295 295 296 296 296 297 297 298 299 298 297 298 298 297 296 295 294 293 293 293 293 292 292 292 291 291 291
307 309 313 312 309 307 305 308 311 309 306 308 311 313 314 313 311 311 311 312 314 313 313 315 315 315 317 316 316 314 313 314 312 311 312 312 312 310 306 306 306 301 300 301 303 303 303 303 304 302 298 298 299 299 301 300 298 297 296 295 296 296 295 295 295 295 295 295 296 297 297 297 297 296 296 296 294 294 293 293 293 292 292 292 291 291 291 291
307 312 313 309 308 307 307 310 310 307 308 310 311 313 313 312 311 311 310 311 314 313 312 314 315 316 316 316 316 314 313 313 311 311 312 310 311 311 307 305 304 301 300 300 300 302 302 302 303 302 299 299 300 299 298 299 299 298 296 296 296 296 295 296 296 295 295 294 295 295 295 296 296 296 295 295 294 294 293 293 293 292 292 292 292 291 291 291
310 315 314 308 307 308 309 310 309 309 310 311 312 312 312 311 311 311 311 311 313 313 311 312 313 315 315 315 315 314 313 313 311 311 310 311 311 310 306 304 302 301 300 300 301 302 301 300 301 302 301 299 298 296 295 296 297 296 296 296 295 295 295 295 296 296 295 295 295 294 294 296 296 296 296 295 295 294 293 293 292 292 292 292 291 291 291 291
312 314 311 307 308 310 312 313 312 312 311 311 313 312 312 312 310 311 313 311 311 312 312 312 312 313 313 313 313 314 313 312 312 312 310 311 308 303 301 302 301 300 300 299 299 300 300 299 299 301 300 297 294 294 295 296 295 295 295 295 295 296 295 295 295 295 295 295 295 294 295 296 296 296 295 295 295 294 293 293 292 292 292 291 291 291 291 291
311 312 309 307 308 310 313 315 316 315 311 311 312 311 312 313 312 313 313 312 312 312 312 312 312 311 312 312 312 312 313 312 313 312 310 310 305 298 298 301 300 299 300 299 299 300 301 300 298 299 300 298 296 294 294 295 294 294 294 295 297 296 296 295 294 294 294 294 294 294 294 295 295 296 296 295 295 294 293 292 292 292 291 291 291 291 291 291
311 312 310 307 307 309 312 314 316 317 315 314 314 312 313 313 312 312 313 312 312 312 313 313 312 311 311 311 311 311 311 312 313 311 308 307 301 295 296 298 297 298 299 299 300 300 300 299 298 299 301 302 301 298 296 296 294 294 294 295 296 296 295 295 294 295 295 295 294 294 294 295 296 296 295 295 295 294 293 292 292 292 291 291 291 290 290 290
314 317 312 307 307 309 310 311 312 315 317 317 317 316 314 314 313 312 312 313 312 312 314 313 311 310 310 310 310 309 308 309 311 309 306 304 299 295 295 295 295 296 297 298 299 298 297 297 297 299 300 302 301 298 296 295 294 294 294 294 295 296 296 295 294 294 294 294 294 295 295 295 296 295 295 295 294 293 293 292 292 291 291 291 290 290 290 290
316 319 315 310 310 310 309 310 311 312 314 316 318 318 317 316 315 314 313 313 313 313 313 312 311 311 310 310 310 310 308 308 309 308 307 305 298 295 295 295 294 295 296 298 298 296 295 296 296 297 298 298 297 296 295 294 293 293 294 294 294 295 296 297 295 294 294 293 294 294 294 295 295 295 295 295 293 293 292 291 291 291 291 290 290 290 290 289
315 318 315 313 315 314 311 311 311 312 313 314 316 317 317 317 316 316 314 312 312 312 313 313 311 311 311 311 310 310 309 307 307 308 308 305 300 296 295 295 295 295 296 296 296 295 295 296 297 297 297 296 296 295 295 295 293 293 293 293 293 294 295 297 296 294 294 294 294 293 293 294 294 294 294 294 293 292 292 291 291 291 290 290 290 290 289 289
315 316 314 313 315 317 314 312 311 312 313 314 314 315 317 317 316 316 315 312 311 311 311 313 313 311 311 311 310 310 309 308 310 309 307 305 302 299 298 298 296 295 295 295 296 295 295 296 296 295 295 295 295 295 295 294 294 294 294 294 294 293 294 295 295 294 294 294 293 292 292 293 293 294 294 293 293 292 291 291 291 291 290 290 290 289 289 289
315 315 313 311 313 315 315 314 312 312 313 313 314 315 315 315 316 316 315 314 312 310 310 312 313 311 311 310 310 311 310 309 312 312 308 305 303 301 301 300 298 296 295 295 295 296 295 296 296 295 295 296 295 295 295 294 294 294 294 295 294 293 293 293 294 294 294 294 293 292 293 293 293 294 294 293 292 292 291 291 291 290 290 290 289 289 288 288
314 314 313 312 313 314 314 314 313 313 314 314 315 315 314 314 315 315 315 314 313 313 311 310 312 312 311 310 309 309 310 311 312 311 307 305 304 303 302 300 299 297 296 295 295 296 295 295 295 296 297 297 296 296 296 295 294 294 294 294 294 293 294 293 293 294 294 294 294 294 294 294 294 294 293 292 292 291 291 291 290 290 290 289 289 288 288 288
313 313 312 314 316 315 314 314 314 314 315 314 314 314 314 314 314 314 315 314 313 313 311 311 311 311 310 310 310 308 308 307 304 302 302 301 301 301 299 299 299 298 297 295 295 295 295 295 295 296 296 296 295 294 294 293 293 294 294 294 294 294 293 293 293 293 294 294 294 294 294 293 293 292 292 291 292 291 291 291 290 290 290 289 288 288 287 286
Wind_Speed
21 23 24 25 26 27 28 30 31 31 31 32 32 33 34 34 33 32 29 24 21 21 21 17 12 7 1 5 9 12 14 13 14 20 16 12 15 15 14 15 16 15 13 10 8 7 3 2 2 3 4 4 1 0 1 1 2 3 3 3 1 2 3 3 1 4 7 9 7 6 7 8 9 7 6 4 3 3 4 9 10 9 11 15 17 19 17 18
21 23 24 25 26 27 28 29 30 30 31 31 31 32 33 33 33 33 31 25 21 22 22 17 13 7 0 6 9 7 9 7 11 19 14 14 15 14 14 14 16 15 13 10 9 9 7 5 7 7 5 2 1 1 1 1 1 2 3 3 1 5 3 2 1 4 8 10 10 9 8 6 8 8 7 8 4 6 10 11 12 14 16 16 18 19 18 20
22 23 24 25 26 27 27 28 29 30 30 30 31 31 32 32 32 33 31 24 20 23 22 16 13 8 1 6 10 7 3 2 7 13 12 16 14 13 14 14 15 15 13 9 8 8 7 7 7 7 5 3 1 1 1 1 1 1 3 2 4 4 2 2 1 5 8 10 11 9 8 6 5 7 6 7 5 10 13 11 13 15 17 16 17 19 20 21
22 23 24 25 26 26 27 28 28 28 29 30 30 30 31 31 31 33 31 24 20 23 21 15 12 7 2 4 9 7 2 3 4 7 12 16 15 13 14 14 15 14 11 9 7 5 6 6 6 6 5 4 1 2 2 1 2 1 3 1 6 2 2 4 2 6 9 10 8 10 9 5 4 4 5 7 4 9 11 11 14 15 15 15 16 18 20 21
21 23 24 25 26 26 26 27 28 28 28 29 29 29 30 30 31 32 29 24 20 23 21 12 10 7 4 4 8 7 2 2 2 5 12 16 16 13 13 15 14 13 11 9 8 7 7 6 6 4 4 4 1 2 0 4 2 2 1 4 7 2 1 3 2 6 9 9 7 8 7 6 6 2 5 8 7 8 9 11 13 13 14 15 15 17 19 20
21 22 23 24 25 26 26 27 27 27 27 28 28 28 29 29 30 30 28 24 22 23 18 9 8 9 9 10 8 5 1 1 2 7 13 16 16 13 12 12 12 12 11 9 9 8 7 6 5 4 3 4 2 2 2 4 1 2 1 5 5 3 2 1 3 5 7 8 7 7 6 6 5 4 8 9 10 9 9 11 12 13 15 15 16 16 17 17
20 22 23 24 25 25 26 26 27 27 27 27 27 28 28 28 29 29 27 25 25 22 15 6 6 10 12 12 9 4 2 3 4 10 13 14 13 10 10 10 11 11 9 8 9 8 7 6 6 5 5 4 1 2 4 2 2 3 0 6 4 3 2 1 3 5 6 7 7 7 7 6 2 4 7 9 11 10 11 12 12 15 15 15 16 15 16 17
20 21 23 25 25 25 25 26 27 27 27 26 26 27 27 27 28 29 26 26 27 19 10 5 3 6 6 4 3 3 4 2 6 11 12 11 8 8 9 9 10 9 6 6 7 8 6 6 6 4 4 1 1 2 3 5 4 4 2 5 2 0 1 1 2 4 4 5 7 8 6 2 3 4 7 9 10 12 13 13 14 14 14 14 15 15 15 16
19 21 23 24 25 25 25 26 27 27 27 26 25 26 27 27 27 29 26 25 26 16 8 6 2 5 3 1 3 1 3 3 7 11 11 9 7 8 9 8 8 6 4 4 5 7 5 5 5 4 4 2 2 4 3 4 1 1 5 4 3 2 2 3 3 2 1 4 8 8 4 4 4 3 6 9 10 13 13 13 13 13 14 13 13 14 15 15
19 21 23 24 25 25 25 27 27 27 27 26 25 25 27 27 26 28 25 24 24 14 7 7 4 4 4 3 4 1 2 4 7 11 12 9 6 6 7 8 8 6 4 3 5 6 4 4 4 2 3 2 2 4 2 2 1 2 6 6 6 3 3 4 5 5 4 4 11 10 6 3 5 5 3 9 10 12 13 14 13 13 13 12 12 13 14 15
19 21 22 24 24 25 26 27 27 27 27 27 26 25 27 27 25 26 24 23 22 11 6 9 8 5 3 4 3 1 4 5 8 12 13 9 4 5 8 8 7 5 5 3 3 5 3 3 2 2 1 0 2 4 3 1 3 4 7 7 5 6 6 6 7 7 6 3 10 10 7 2 6 4 4 8 9 12 13 14 13 13 12 11 12 12 12 14
18 20 21 23 24 25 26 27 27 27 27 27 26 25 26 26 24 24 22 21 22 11 2 5 7 6 1 1 3 3 3 5 9 13 14 11 5 6 8 8 6 4 5 3 2 2 3 3 3 4 1 2 4 3 2 1 4 4 6 5 4 10 7 5 5 7 6 3 7 9 6 5 6 4 4 6 9 12 13 13 12 11 10 10 11 10 10 13
18 19 21 22 23 25 25 27 27 27 27 26 26 25 25 24 22 23 22 20 21 13 4 2 2 3 2 3 4 1 2 5 10 13 15 12 7 7 8 8 6 3 3 3 2 2 3 2 5 4 1 3 4 1 1 2 4 4 4 4 3 7 7 5 4 8 6 1 5 8 5 2 6 5 3 6 10 12 12 11 10 9 9 9 9 8 9 13
17 18 20 22 23 24 25 27 27 27 27 26 26 25 24 22 20 24 21 17 21 14 5 1 3 1 1 3 2 1 3 5 8 13 14 12 9 8 7 9 6 3 3 2 3 3 3 2 5 4 1 4 2 1 3 5 4 3 3 2 3 2 4 6 3 4 4 1 4 8 6 3 2 2 8 12 12 12 12 10 9 8 8 7 7 8 9 11
16 18 19 21 23 24 25 26 27 27 27 25 26 24 24 20 19 25 19 14 22 13 3 3 3 2 1 4 0 1 4 4 6 13 14 13 11 6 7 9 5 3 3 2 3 2 2 3 4 4 2 3 3 4 5 4 5 3 1 1 1 2 2 6 4 1 2 3 5 7 5 5 8 6 12 15 11 13 12 9 9 9 8 7 7 8 8 9
16 17 18 20 22 24 25 26 27 27 26 26 25 24 22 17 20 24 14 15 22 8 0 2 2 3 1 4 1 0 3 4 6 13 15 15 12 7 9 10 4 3 4 2 2 2 3 5 3 3 2 3 3 5 6 4 4 3 1 2 2 3 2 2 4 3 5 6 4 4 4 6 9 4 12 13 11 14 11 10 9 8 8 7 6 7 8 9
16 17 18 20 22 23 25 26 27 28 27 26 25 26 20 15 21 18 9 18 17 1 2 2 1 2 0 2 2 1 3 4 7 12 14 16 12 8 9 7 4 3 4 4 3 3 4 5 2 2 3 3 3 4 5 5 2 1 2 4 4 4 5 3 2 3 2 4 5 4 5 7 9 5 13 11 12 13 11 10 9 7 6 6 7 7 9 9
16 17 18 19 21 23 24 25 27 28 28 26 27 27 17 15 19 9 9 21 10 4 2 3 1 2 2 2 1 1 4 5 8 10 12 15 12 8 7 5 5 4 5 5 4 2 2 3 3 3 3 1 4 4 4 3 3 5 4 5 6 5 6 7 3 2 1 4 6 6 5 8 10 5 13 10 11 11 11 10 7 7 6 6 6 7 9 10
16 16 17 19 20 22 24 25 27 27 27 27 29 24 14 14 11 1 11 20 5 2 3 2 2 3 0 1 0 4 6 5 6 6 9 13 12 9 7 7 5 5 6 4 2 3 3 3 4 4 3 2 5 3 3 4 3 6 6 6 7 7 6 8 4 4 2 7 6 6 7 9 11 2 12 9 10 10 10 9 6 6 5 6 6 7 8 9
15 16 17 19 20 21 22 24 25 25 25 27 28 19 9 10 6 1 10 11 4 2 6 4 3 4 2 1 2 8 6 3 2 2 7 13 12 8 6 6 5 5 3 5 6 3 2 5 4 2 4 5 5 3 3 5 5 6 7 7 8 9 7 5 4 5 4 5 6 8 10 12 13 3 13 10 10 10 9 9 6 5 5 6 7 8 8 8
15 15 16 18 19 20 21 23 24 22 21 23 22 12 4 6 5 4 7 4 3 2 4 3 3 5 4 2 3 7 2 3 3 1 9 12 8 5 2 3 6 5 3 4 6 2 1 6 2 2 4 5 4 3 3 5 6 7 7 7 7 7 7 6 3 4 2 4 6 10 11 14 12 6 14 9 10 9 8 8 7 6 6 6 6 7 7 8
15 15 16 17 18 19 20 21 20 18 19 20 17 9 4 2 0 1 3 5 1 2 2 2 2 3 2 1 2 3 0 3 3 1 9 12 5 3 5 6 7 8 7 6 6 3 5 5 2 4 3 2 3 3 4 6 7 7 6 6 6 5 6 4 3 4 3 6 8 10 10 14 7 10 12 9 10 8 8 8 7 6 6 5 6 7 8 10
14 14 15 15 17 18 18 19 16 15 17 16 12 7 3 3 3 3 2 6 4 2 2 2 2 2 3 3 1 2 2 2 1 2 8 10 4 2 5 6 8 9 7 5 5 5 7 3 3 2 0 2 5 3 5 7 7 6 5 6 6 5 6 3 2 4 9 7 6 9 10 10 2 11 9 8 10 9 9 8 7 5 5 5 5 7 9 12
13 14 14 14 16 16 17 17 12 12 13 11 10 6 2 4 4 2 2 5 4 2 1 0 1 2 1 2 1 2 2 1 1 2 7 8 4 2 3 4 7 10 5 3 5 8 10 4 4 1 2 3 6 6 6 6 6 7 6 5 6 5 5 6 7 11 11 3 3 7 10 7 6 12 8 8 9 9 8 7 6 5 4 4 5 8 10 11
13 13 13 14 14 14 16 12 8 11 9 6 7 5 2 2 5 4 1 4 3 1 1 2 2 1 0 1 1 2 1 0 0 3 6 6 4 2 3 1 4 8 5 3 5 9 8 3 3 1 3 3 5 7 5 2 6 7 2 2 5 6 6 9 11 11 9 3 4 8 9 4 7 12 11 9 9 9 7 5 5 4 4 5 7 8 9 10
13 12 13 13 13 14 12 5 5 11 5 2 5 5 2 0 6 5 1 3 3 1 2 2 2 2 2 1 1 1 1 1 2 3 2 3 2 2 4 1 2 5 6 3 5 6 3 2 1 2 3 4 6 8 3 1 6 6 2 4 4 5 7 9 11 9 6 7 6 6 7 6 4 8 12 13 11 11 8 5 5 3 4 5 7 8 9 12
12 12 12 12 13 13 7 2 6 9 2 0 5 5 3 1 6 4 1 4 3 1 2 1 0 1 1 2 1 2 2 1 3 2 2 2 1 2 5 5 3 3 2 2 5 2 1 0 1 2 3 5 7 6 1 2 5 3 4 5 6 6 9 9 9 8 6 10 10 7 9 8 8 7 11 16 13 11 8 4 5 4 5 7 9 10 12 14
12 12 12 12 12 10 5 3 6 4 1 4 5 4 2 3 6 2 3 4 2 2 1 1 1 0 1 2 1 4 3 1 1 0 2 2 2 2 5 6 7 5 1 2 6 1 3 2 1 2 3 5 4 2 3 1 4 3 6 5 6 6 8 9 8 8 8 10 9 6 6 7 8 5 10 14 12 10 6 2 3 5 7 9 11 12 13 14
11 12 11 11 11 8 5 4 4 2 3 5 4 2 3 6 4 1 2 3 1 2 1 1 2 1 1 1 4 5 3 1 2 1 2 2 2 0 4 3 4 5 2 6 9 4 2 3 2 2 3 4 3 4 4 1 2 4 6 6 7 7 8 8 7 8 9 8 9 9 8 7 7 4 8 10 10 8 3 2 3 6 9 10 11 12 15 15
11 12 11 11 9 6 6 5 3 3 4 4 2 2 6 4 2 3 4 3 0 1 1 1 1 0 1 4 4 5 4 4 1 1 3 2 1 2 1 1 1 5 5 7 9 7 1 2 0 2 3 3 2 3 2 1 3 6 6 7 7 7 8 8 7 7 7 7 9 9 9 8 6 4 5 4 4 4 1 3 3 7 9 10 11 12 15 15
11 12 11 10 7 5 4 2 2 4 4 2 1 5 3 2 2 4 4 1 1 1 2 2 1 1 1 3 3 3 4 4 2 2 4 2 2 4 3 2 2 3 6 6 6 5 3 3 3 1 1 2 1 2 2 2 4 5 5 6 7 6 6 6 5 3 5 7 4 2 4 5 7 3 2 3 5 5 1 3 4 7 9 11 12 13 15 14
11 12 11 9 6 3 3 3 4 6 4 1 2 3 3 3 4 6 3 1 0 2 2 2 2 1 1 1 4 5 4 4 3 2 3 0 2 4 2 2 2 3 6 3 1 2 4 4 3 3 1 3 3 3 3 4 5 5 5 4 5 6 6 5 4 3 6 6 2 7 4 3 9 8 4 7 7 4 3 3 4 7 10 12 13 15 14 13
11 12 11 9 5 4 5 5 6 6 3 2 1 3 4 4 5 4 3 2 0 1 2 1 1 1 0 2 5 3 1 3 3 2 1 1 3 3 1 1 1 2 5 4 5 5 3 2 5 4 2 4 5 4 3 3 3 4 3 2 3 5 6 6 5 5 7 3 3 4 5 4 8 9 6 9 7 4 4 4 5 8 11 12 14 15 14 15
12 11 12 11 7 6 6 6 6 5 1 1 2 4 5 7 5 0 3 3 0 1 2 2 1 2 4 6 5 1 2 4 3 2 1 3 4 4 3 4 4 3 4 5 6 5 6 3 4 5 2 4 6 4 3 2 0 1 1 1 4 4 5 6 5 6 7 6 4 2 3 4 6 2 8 10 7 5 3 3 6 9 10 11 12 14 15 15
12 11 13 13 10 8 6 6 7 5 2 1 4 6 7 8 4 1 3 2 1 2 3 3 2 4 7 8 3 2 3 3 3 2 4 5 5 6 4 5 7 6 4 4 3 1 7 6 3 2 0 2 5 2 1 2 2 1 2 1 3 3 5 6 7 7 6 9 8 3 3 5 2 5 11 9 6 5 3 3 6 10 11 12 12 13 14 15
10 10 12 11 10 8 6 8 8 5 3 3 5 7 8 7 4 2 1 1 1 1 1 3 5 5 6 4 4 4 3 2 2 2 4 7 8 7 4 3 7 9 6 4 2 1 5 4 5 3 1 2 1 0 1 3 1 2 2 2 1 3 2 5 8 5 1 7 6 4 5 6 3 5 9 9 5 2 2 5 8 11 12 13 12 12 14 15
7 8 8 8 10 8 8 10 8 6 3 4 7 9 6 6 6 5 2 2 0 0 2 5 4 3 5 4 3 5 5 2 4 3 2 3 5 7 7 4 5 9 6 3 3 2 3 4 5 6 3 2 2 1 3 3 2 1 2 1 3 3 1 2 4 3 3 8 6 5 7 8 6 4 7 9 4 4 6 8 11 12 13 13 12 13 15 16
5 5 6 9 12 11 10 11 9 5 3 5 10 11 7 6 7 5 4 4 1 3 4 6 4 3 4 6 4 5 7 2 3 4 4 3 3 5 8 5 4 7 3 1 2 0 1 4 3 3 1 3 2 2 4 3 1 0 1 1 1 1 2 3 3 3 5 8 7 6 7 7 8 4 5 7 4 7 8 10 11 12 13 13 13 15 18 18
3 2 3 7 10 11 13 12 7 4 5 6 10 10 7 8 9 5 5 4 3 4 5 8 6 5 6 7 5 4 7 6 5 4 4 5 3 5 9 5 5 6 4 4 2 0 0 3 2 2 2 3 3 4 6 5 4 2 0 1 1 1 3 4 2 1 5 7 7 7 5 4 6 2 2 4 5 6 8 10 10 12 13 13 14 16 17 18
3 1 2 6 9 12 14 11 5 5 6 7 10 7 3 6 8 7 8 7 5 5 7 8 8 8 8 8 7 5 7 9 8 7 5 5 4 5 9 6 7 8 5 2 2 0 2 4 3 1 1 2 3 4 5 4 5 5 5 5 3 2 2 4 3 2 3 6 6 7 9 5 3 3 1 4 4 5 8 11 10 12 13 14 16 17 17 18
3 2 2 7 11 14 14 7 5 6 7 8 11 9 4 4 6 7 9 8 7 7 7 7 9 10 8 8 8 6 6 8 8 8 7 7 8 6 7 7 10 11 7 2 3 3 2 3 4 2 3 5 3 1 1 3 1 4 6 6 6 5 4 4 5 3 2 5 6 6 11 8 3 1 4 4 3 5 8 11 11 12 14 15 16 18 19 18
3 3 3 9 14 15 11 5 5 5 7 8 7 8 6 4 6 7 8 6 5 6 5 6 9 10 8 9 8 7 7 8 9 8 7 9 10 4 3 7 11 12 7 3 1 1 0 0 3 6 5 4 1 2 2 3 3 4 5 5 5 6 6 5 6 3 2 6 7 5 11 8 2 2 4 2 2 6 9 10 12 12 14 15 17 19 20 19
3 3 4 9 14 13 7 6 6 6 8 6 4 7 7 5 6 8 9 8 5 5 5 6 8 9 8 8 8 10 9 7 10 10 9 9 6 1 4 9 12 10 5 2 2 1 1 1 3 6 4 2 3 1 0 1 2 4 5 6 6 6 6 6 5 2 2 7 6 5 11 7 3 4 4 4 4 8 9 10 12 12 12 15 18 20 19 20
3 2 2 8 13 11 6 7 8 8 9 7 7 11 9 5 7 11 11 10 8 7 7 7 7 8 8 8 9 11 9 6 8 10 9 7 3 3 4 8 8 6 2 1 3 3 2 3 3 3 5 3 3 3 3 4 5 5 6 7 7 6 5 2 2 1 4 7 8 8 12 8 0 4 7 7 8 11 11 11 12 12 13 15 17 19 19 19
3 2 1 6 11 8 4 5 7 9 10 11 14 15 11 6 8 13 13 12 12 10 7 5 5 8 7 6 8 10 10 9 8 3 2 3 3 2 1 1 1 2 1 2 1 2 3 4 4 5 6 7 5 3 3 4 5 4 6 9 9 9 9 4 1 5 7 7 10 11 11 10 6 5 9 11 12 13 13 12 11 12 14 15 16 17 17 18
3 4 2 4 6 7 4 3 4 8 10 12 13 13 14 13 9 10 12 15 15 13 8 3 3 5 6 7 9 11 11 12 10 5 2 3 3 1 2 1 2 2 3 4 3 1 1 3 6 9 9 9 6 2 1 4 5 5 7 11 12 11 11 7 4 7 8 7 11 13 12 15 14 12 14 14 13 13 12 11 12 13 14 16 17 17 17 17
4 5 5 5 3 6 7 6 7 7 7 9 9 8 13 16 9 8 13 12 11 12 10 6 6 7 8 10 10 11 10 11 11 10 8 4 3 2 3 3 1 2 2 2 1 1 2 4 8 12 13 11 9 4 3 6 7 8 9 12 14 13 11 10 10 9 6 7 12 12 12 16 16 14 15 14 13 13 11 11 13 14 15 17 18 18 19 19
5 3 5 8 6 7 8 9 10 12 12 12 10 10 15 17 13 11 11 6 4 8 8 8 13 16 16 13 8 8 9 8 9 12 9 4 5 3 3 2 1 1 2 1 1 1 3 5 7 9 12 13 11 8 6 6 8 10 11 13 15 15 14 15 17 14 10 11 14 12 13 17 15 14 15 14 13 12 10 11 13 14 16 19 19 20 20 19
6 2 1 7 8 9 9 10 13 18 20 17 14 16 19 20 20 14 8 5 4 9 11 12 15 16 18 17 12 10 8 7 9 13 8 4 3 4 2 1 3 4 4 3 2 1 2 3 4 7 11 12 11 10 8 8 11 12 14 16 16 16 17 17 19 19 18 20 19 18 20 21 16 16 17 14 10 8 8 11 13 15 18 19 20 20 19 19
7 3 3 3 6 8 6 9 13 15 17 16 16 16 15 19 24 17 9 9 8 8 13 20 18 12 15 19 16 16 16 13 15 14 7 7 3 4 3 3 5 6 6 4 2 2 2 1 2 2 7 9 8 9 10 11 13 16 18 18 16 16 19 19 19 18 19 21 22 21 22 19 15 15 15 11 8 7 9 12 13 15 17 19 19 19 19 19
13 7 7 4 5 8 7 7 9 9 12 15 16 14 13 19 25 19 11 14 17 12 13 20 20 11 11 17 19 23 20 11 8 6 9 9 6 5 5 3 7 8 7 5 3 3 4 2 2 1 5 6 4 7 10 10 13 20 22 18 17 18 18 17 16 16 17 19 20 19 16 13 11 11 10 9 8 9 10 12 13 13 16 19 19 18 18 19
17 8 8 6 5 9 11 8 9 10 11 11 12 15 17 19 19 16 12 12 19 19 14 15 15 11 11 18 20 16 7 5 6 4 5 5 3 4 3 4 7 8 7 6 4 3 4 3 2 2 3 4 1 2 3 6 10 15 14 15 20 21 20 17 15 15 18 17 14 13 11 10 10 9 10 10 10 9 10 10 11 13 15 17 17 16 17 19
Wind_Direction
9 8 8 7 6 7 8 8 8 8 9 9 8 7 6 6 6 6 8 9 11 12 11 11 16 22 43 136 119 106 87 81 64 53 50 16 346 343 345 347 351 353 356 358 348 328 280 257 343 329 262 236 233 130 147 75 331 269 259 266 279 83 83 47 338 332 313 302 323 346 6 356 334 350 6 343 226 229 32 46 29 25 18 18 34 31 25 28
7 7 6 4 5 5 6 6 6 7 8 8 7 6 5 5 4 5 6 8 12 12 12 9 8 14 345 176 164 129 99 98 62 54 37 360 352 349 347 354 356 354 357 358 353 348 343 347 345 326 293 262 149 165 185 146 286 273 293 278 72 65 64 47 11 315 299 299 320 336 1 359 335 342 356 351 16 54 40 31 10 4 3 10 34 35 30 31
6 6 4 3 3 3 4 4 4 5 6 6 7 6 5 5 4 4 6 10 15 12 10 7 7 13 37 179 190 184 142 176 53 45 14 358 356 351 350 353 355 353 357 354 346 346 339 333 327 325 311 282 158 170 232 205 281 309 303 280 85 60 97 99 327 290 293 302 318 331 339 336 339 343 352 338 358 51 43 20 4 359 357 7 31 32 28 29
4 4 3 2 2 2 2 2 2 4 5 6 6 5 5 5 4 4 7 13 16 11 8 8 11 16 58 161 188 183 194 232 52 17 348 355 350 345 345 346 352 352 354 345 332 328 314 306 305 319 306 281 155 200 243 76 1 331 298 14 80 43 150 111 311 286 294 304 319 324 322 333 347 338 355 346 5 53 37 18 9 1 6 21 33 30 27 28
1 1 0 0 1 1 0 360 0 2 4 5 4 5 4 4 3 4 8 13 12 7 5 13 26 33 71 120 168 166 205 256 48 344 334 345 341 340 338 342 352 352 353 335 322 319 307 303 296 292 278 291 285 231 207 78 355 268 249 68 73 12 94 100 294 284 297 307 316 315 324 338 328 357 38 26 46 48 29 21 16 19 30 36 37 34 31 29
359 359 358 359 360 360 359 358 358 359 2 3 4 4 3 3 3 3 6 8 4 360 2 20 51 64 86 94 123 159 226 320 8 328 332 336 335 340 339 348 356 356 354 329 319 323 324 321 308 311 296 299 300 292 17 76 307 273 129 87 70 24 49 87 286 283 296 311 317 323 339 321 308 76 66 52 51 46 49 38 33 46 46 42 42 39 35 31
357 356 356 357 358 358 357 356 356 357 360 1 2 2 1 1 1 1 2 3 358 355 3 29 75 88 98 95 99 115 99 67 354 326 334 335 334 347 355 1 2 3 358 338 339 339 339 333 331 341 299 287 281 312 359 346 240 250 345 90 79 25 45 280 283 287 299 311 313 314 307 299 317 94 84 58 47 55 66 56 57 62 51 46 44 39 37 31
355 354 354 355 355 356 355 355 355 356 358 358 360 1 360 359 360 359 358 360 358 356 10 26 104 126 119 109 112 102 80 31 331 331 341 344 345 8 14 8 3 8 2 352 357 339 331 337 350 342 290 343 22 298 346 319 236 212 320 62 85 286 103 236 257 282 300 305 306 305 294 330 57 103 89 49 51 75 76 70 72 67 56 51 42 36 35 29
353 353 353 352 353 353 354 354 354 354 356 356 358 360 358 357 358 356 355 359 360 3 21 18 111 167 180 220 258 175 73 339 325 340 353 356 2 22 19 10 7 3 344 353 355 331 326 346 4 356 313 357 347 312 337 312 224 166 327 354 308 244 154 201 197 211 257 330 328 326 323 88 105 143 90 51 66 88 84 82 76 67 62 52 43 36 30 29
351 352 351 351 351 351 352 353 353 353 354 355 356 358 357 354 354 353 353 357 1 10 40 41 81 150 182 218 254 215 68 349 340 350 357 359 3 20 14 15 20 3 338 348 357 351 352 348 352 356 312 270 272 292 270 285 339 345 315 306 278 230 153 181 173 168 166 356 347 339 333 104 164 206 95 60 79 97 89 83 73 65 62 49 45 39 29 29
350 350 350 350 349 350 352 352 352 352 353 355 355 357 356 351 349 351 349 354 2 11 59 68 77 96 167 229 259 97 59 1 350 353 357 359 348 5 14 19 25 7 341 334 21 13 334 327 312 264 292 270 268 248 205 291 317 315 310 300 240 171 146 170 170 177 186 358 347 330 314 199 180 202 70 56 76 96 85 76 71 64 59 49 44 38 31 27
348 349 349 348 348 349 350 351 352 352 353 354 354 356 354 349 347 348 346 350 358 1 49 96 86 70 105 99 56 63 46 349 343 351 356 358 341 356 18 21 20 8 344 329 35 26 302 316 252 249 316 336 292 265 166 145 287 282 290 298 154 145 153 176 169 182 196 359 335 314 298 211 170 137 67 59 84 92 82 73 70 64 60 51 41 36 33 27
346 347 347 347 348 348 349 350 351 351 352 353 354 354 352 348 345 345 342 347 356 357 320 237 122 32 324 87 70 21 349 336 343 350 352 357 345 335 359 9 8 358 341 325 344 310 282 279 247 261 326 283 293 356 121 186 255 245 241 278 178 151 166 175 161 180 187 4 317 316 320 214 149 136 101 102 108 97 85 79 76 70 64 51 40 34 31 27
344 344 345 345 347 347 348 349 350 350 351 352 351 352 350 343 339 341 338 344 353 350 329 281 167 296 330 91 78 333 351 348 356 349 345 355 340 317 340 354 348 318 319 313 303 291 281 262 251 262 230 259 300 20 232 194 206 201 157 221 215 158 157 157 150 192 197 344 332 333 325 303 329 55 91 109 116 102 95 89 82 74 63 51 41 30 26 27
341 342 343 344 345 347 347 347 349 349 350 351 349 349 347 337 332 336 336 346 349 343 344 93 144 270 120 116 154 305 359 360 2 346 343 354 344 320 334 336 319 283 295 293 286 280 273 251 243 266 223 206 248 271 264 208 184 199 186 196 178 11 120 137 112 81 353 351 5 351 320 303 316 0 92 113 117 106 104 97 88 76 63 50 37 29 20 20
340 341 342 343 344 346 346 347 347 348 349 350 347 347 345 335 327 329 335 348 344 338 35 90 141 299 178 128 163 207 10 1 346 343 343 347 343 325 321 315 289 268 273 263 273 247 250 249 235 297 277 212 254 288 299 267 195 184 258 333 341 325 319 126 126 89 25 356 1 345 291 291 309 17 103 119 115 111 110 102 92 74 63 48 33 29 17 11
339 340 341 342 342 345 346 346 347 346 347 348 348 348 345 335 327 323 346 354 346 27 94 49 130 282 177 110 139 150 11 337 324 336 339 340 338 325 319 303 274 280 258 228 240 235 233 233 211 299 242 230 319 329 311 297 255 267 348 332 303 299 305 285 195 150 59 355 322 274 241 276 308 70 116 125 118 117 112 104 96 77 67 48 35 25 14 9
338 339 342 341 341 345 345 346 347 346 346 348 349 347 343 342 334 321 10 357 345 166 105 71 109 242 141 83 132 30 345 316 310 326 335 338 336 323 315 294 287 298 266 226 217 248 268 221 216 260 235 232 357 350 308 313 311 297 313 311 294 294 282 271 268 157 140 315 293 268 251 283 308 97 125 126 121 118 109 106 100 86 72 49 36 20 13 5
335 338 341 340 342 344 344 346 346 347 348 350 351 349 348 354 339 246 22 3 3 175 306 7 348 270 158 36 11 335 326 307 308 321 332 337 337 319 293 275 269 272 281 294 326 332 329 285 245 265 288 346 351 342 299 308 302 286 288 281 276 282 271 269 286 112 78 307 279 280 288 293 304 141 134 128 123 116 108 110 97 89 72 46 34 17 10 359
334 337 339 341 342 343 345 345 344 349 353 354 358 358 357 2 342 238 14 7 60 33 297 302 328 269 285 22 330 333 320 266 276 317 340 341 334 314 277 261 259 252 287 335 326 341 352 293 281 302 336 342 327 306 294 295 283 276 277 271 270 278 275 279 284 123 87 313 276 294 298 297 304 172 143 138 129 119 113 112 96 85 61 37 24 12 3 357
334 335 338 341 342 343 345 344 344 350 356 3 14 24 21 9 348 325 348 340 114 72 280 295 318 274 296 338 327 344 348 212 216 260 350 348 324 304 319 311 300 301 349 335 289 256 259 285 299 48 350 330 310 289 292 287 280 279 276 280 282 282 293 309 294 140 76 323 290 300 302 300 301 159 147 145 135 123 115 109 93 76 52 34 18 5 359 360
333 334 337 339 341 344 344 344 345 348 357 11 32 58 83 71 87 251 307 290 230 148 238 254 244 252 264 261 322 3 130 227 203 164 356 347 322 329 345 329 321 323 332 315 285 288 291 285 74 57 359 304 263 258 282 282 280 281 277 281 283 303 328 316 158 127 331 306 298 307 305 300 289 151 151 150 132 116 109 101 87 71 44 28 15 5 2 2
333 335 334 337 341 342 343 345 345 352 7 26 51 71 101 149 169 166 208 283 282 184 197 242 234 199 168 163 28 328 259 270 207 87 8 344 337 2 324 326 331 316 308 307 318 315 295 310 70 53 61 246 257 250 274 281 276 273 277 280 285 325 345 293 171 342 314 297 311 314 296 292 226 146 149 142 130 119 120 113 102 86 46 32 18 12 7 1
334 336 333 336 340 340 341 342 347 5 20 40 57 64 110 169 153 131 217 271 273 194 161 258 276 287 178 130 31 301 294 344 289 40 20 352 338 328 311 343 327 305 305 334 318 283 276 314 50 118 181 259 280 276 277 284 285 286 284 279 294 328 328 296 305 318 305 280 32 340 301 282 165 163 163 144 143 138 134 126 114 99 54 40 21 16 8 359
336 336 334 335 337 339 338 338 360 11 18 44 34 37 76 163 154 146 262 274 255 202 172 174 194 255 185 123 17 354 344 201 302 25 26 4 338 321 324 350 296 302 331 357 302 277 276 330 49 220 233 265 286 286 289 311 294 294 321 30 343 333 314 305 313 322 310 277 55 12 318 285 167 180 174 154 163 155 148 142 118 89 54 37 16 13 2 354
336 338 337 335 335 337 334 335 9 1 13 85 356 350 6 141 166 161 289 276 244 176 143 178 187 174 149 110 15 21 260 190 82 50 53 13 329 299 312 300 196 302 329 338 298 283 283 39 48 289 281 280 284 280 282 41 292 292 38 32 352 319 305 314 318 322 309 289 322 344 294 276 252 214 176 162 174 165 155 145 115 76 47 33 11 6 358 355
339 341 337 337 339 339 343 341 345 352 17 311 327 328 333 173 161 160 296 270 244 154 127 176 237 196 139 48 358 264 299 101 114 99 88 356 319 210 285 299 269 281 350 338 294 274 120 110 239 287 293 282 282 283 355 32 288 303 33 356 337 321 307 313 311 298 291 297 298 275 251 258 281 257 174 163 172 168 167 146 100 64 29 18 6 3 1 358
342 343 338 341 344 349 9 336 327 351 325 303 319 320 327 150 159 169 291 280 256 116 104 113 82 87 134 74 226 256 319 30 228 90 92 326 324 196 260 291 298 298 83 249 278 330 53 345 289 292 285 275 289 338 44 358 264 334 18 339 309 303 290 291 292 285 291 299 287 253 235 247 270 251 162 165 182 181 172 130 73 38 18 9 3 1 359 357
342 344 339 342 346 353 358 325 307 295 284 303 312 306 118 140 172 240 272 276 198 118 56 98 115 107 143 195 218 228 249 241 285 10 149 242 347 253 275 314 315 297 252 232 260 284 26 29 352 309 275 280 343 48 47 328 258 337 341 298 271 261 262 270 275 286 293 282 271 255 230 240 272 240 175 183 199 196 177 54 41 20 13 5 359 359 356 352
340 346 342 345 350 350 338 316 271 276 296 306 308 129 130 152 234 268 242 252 302 97 78 152 175 75 280 268 230 196 219 231 191 131 192 198 149 191 228 356 275 272 258 239 250 261 265 88 253 266 282 305 11 57 49 4 311 316 302 283 280 263 262 268 263 285 288 265 268 252 218 234 267 247 217 211 165 150 2 347 7 6 4 2 359 358 354 347
336 343 344 348 350 346 336 302 260 304 304 288 110 127 160 217 235 257 250 249 15 148 145 161 118 40 305 298 272 239 262 254 184 215 241 187 188 212 198 217 235 254 252 238 235 240 224 219 209 151 304 310 237 223 205 224 275 289 277 287 301 289 282 274 249 246 254 263 283 137 150 236 247 235 173 132 109 107 61 337 354 359 355 358 359 355 350 340
327 338 342 347 347 333 305 261 284 305 277 211 125 165 244 261 222 233 230 124 176 190 162 131 92 43 20 10 267 260 283 272 203 214 267 89 245 253 240 254 302 303 273 267 284 252 224 210 162 104 186 220 221 225 206 209 232 249 259 287 307 305 302 276 246 232 249 264 115 108 83 266 248 258 217 151 132 121 93 33 8 1 356 356 357 351 343 334
316 331 332 333 330 292 269 257 271 279 253 138 168 237 255 256 241 228 200 191 270 120 122 100 113 134 67 285 269 243 217 250 208 174 148 161 244 248 194 167 134 279 279 305 315 289 269 160 145 156 173 186 214 235 236 218 205 224 251 297 293 298 301 282 278 276 267 260 115 70 8 303 268 270 214 158 129 108 84 55 21 6 359 355 352 343 335 330
307 322 321 320 312 280 258 251 254 251 226 100 229 239 227 236 251 270 209 215 139 121 137 120 170 193 207 246 269 182 217 240 181 169 209 186 221 236 220 188 175 214 257 278 294 278 269 269 171 177 153 157 199 232 312 327 295 207 36 342 264 258 267 276 297 296 292 296 286 321 339 280 299 16 128 130 121 111 77 45 17 3 356 352 345 336 333 329
295 309 311 308 301 280 246 241 243 224 192 212 234 228 221 237 250 243 241 226 120 186 161 151 220 255 246 235 214 157 239 252 134 184 228 207 231 253 235 189 183 194 208 237 277 237 246 254 141 133 29 170 195 186 8 306 262 155 92 245 247 257 258 267 292 297 306 303 283 235 223 256 294 113 128 130 141 132 78 20 2 355 350 347 339 333 331 327
288 302 303 297 287 271 230 231 229 194 178 227 229 225 227 244 252 218 209 166 156 191 264 239 219 248 271 238 181 170 201 235 184 227 239 217 236 244 212 155 174 189 196 219 250 248 255 248 124 130 219 159 149 99 224 277 272 145 164 217 103 44 319 270 287 303 317 288 269 189 231 261 238 174 156 152 164 161 23 360 354 349 345 340 335 332 328 325
275 288 289 278 273 262 224 220 210 176 186 228 228 232 235 245 245 234 174 122 87 212 296 278 212 205 267 267 234 182 167 226 201 206 258 217 229 218 187 158 173 189 197 237 252 241 282 267 166 164 189 140 68 298 239 263 294 197 202 186 93 74 55 238 275 305 270 270 262 205 242 261 264 242 172 174 211 323 342 349 346 340 339 334 332 330 326 325
260 281 272 254 257 250 216 203 189 174 208 231 235 241 240 233 230 217 155 130 145 175 218 254 216 183 239 264 268 165 152 229 195 191 251 235 222 182 168 169 178 181 164 118 257 290 340 275 208 157 160 125 125 237 220 203 200 255 317 16 95 233 229 186 207 277 269 271 278 257 250 251 254 249 170 201 273 335 334 339 338 332 334 333 332 330 327 328
222 291 259 222 224 221 197 181 167 188 220 220 233 241 232 230 228 198 164 172 174 177 220 244 227 223 234 244 268 171 173 233 235 223 243 226 220 162 158 171 166 162 148 144 205 251 149 251 242 42 33 111 163 220 216 198 164 123 351 255 198 237 246 235 225 265 263 273 290 282 273 258 247 220 153 249 309 336 329 333 332 328 332 332 332 329 328 329
193 233 229 185 186 187 173 160 160 202 219 220 231 236 207 222 225 196 190 203 197 199 233 242 224 236 249 244 254 239 222 242 241 238 234 226 248 186 165 168 152 146 136 147 222 228 173 229 234 39 44 172 195 209 217 221 184 176 206 214 198 179 218 258 258 188 233 266 278 283 282 269 155 121 270 293 327 338 330 331 326 326 331 330 330 330 327 326
185 243 218 172 171 165 155 160 191 199 221 228 233 238 221 222 226 200 197 210 218 222 241 254 235 238 254 251 250 243 241 252 239 235 240 233 243 223 168 155 147 141 129 139 218 207 178 221 233 220 209 212 214 100 358 315 255 204 209 205 209 207 197 239 246 189 163 246 245 263 277 270 155 134 299 306 336 336 330 328 326 328 328 326 329 328 325 325
200 236 172 157 168 164 161 202 203 191 230 226 230 241 219 216 227 203 188 195 226 234 236 255 243 239 248 249 255 251 246 259 242 229 240 231 229 233 152 148 148 148 147 147 191 220 35 294 242 244 233 204 168 48 18 326 305 268 243 221 228 218 190 211 239 218 183 238 235 246 268 272 136 164 269 253 283 324 329 329 330 327 324 325 325 324 323 323
211 208 142 155 172 169 178 232 204 204 235 223 241 244 216 211 220 205 193 189 208 222 215 232 228 227 235 228 242 251 243 254 246 229 237 237 225 101 135 155 150 150 157 144 129 132 47 114 220 252 259 145 129 138 212 237 232 257 246 222 225 221 200 214 241 284 282 241 230 242 256 264 106 154 213 216 279 316 325 332 334 325 322 325 322 321 323 323
209 195 137 172 181 175 193 227 213 222 231 219 238 236 224 230 220 211 205 193 195 204 215 232 219 218 232 215 223 238 223 227 242 229 231 231 190 85 149 161 154 161 174 170 162 161 179 178 170 227 256 233 192 204 209 191 196 227 229 204 200 202 196 225 259 270 265 236 223 238 254 264 270 167 200 230 288 315 324 333 334 324 322 324 322 322 322 320
193 211 136 173 188 195 219 235 231 241 235 229 240 234 225 234 217 214 219 212 209 206 208 230 207 205 218 203 223 235 213 217 240 229 208 208 156 86 128 139 118 157 110 37 59 156 201 212 188 197 227 233 228 231 218 190 190 214 216 199 196 197 190 182 204 221 235 239 228 233 252 268 269 231 237 263 294 312 320 327 326 321 322 322 320 321 321 320
188 212 169 150 189 220 249 283 254 249 242 240 251 242 227 229 216 202 216 229 226 213 208 216 184 201 204 191 227 243 222 218 232 238 225 190 160 112 122 98 18 59 68 41 36 115 230 246 231 228 235 242 260 298 127 163 191 209 210 203 201 202 196 190 209 224 231 256 250 241 251 268 273 269 269 280 298 306 313 321 319 319 322 320 319 320 319 318
211 213 180 153 183 220 229 241 235 239 245 238 246 252 236 235 231 196 201 221 226 215 220 221 185 194 204 198 223 246 228 213 220 236 238 187 124 94 107 104 44 23 55 45 44 146 227 245 235 238 249 259 281 300 165 179 221 230 225 219 213 208 199 200 220 223 212 247 257 248 250 263 271 273 274 287 302 306 314 319 315 320 322 319 318 319 318 316
210 219 171 170 194 215 211 214 217 226 239 235 235 252 249 245 244 220 197 190 211 206 213 224 211 209 211 206 212 239 227 207 215 230 229 179 125 127 105 95 179 169 118 123 230 195 243 253 231 235 254 260 267 269 236 225 248 244 237 236 228 217 207 210 223 224 211 231 253 264 267 268 273 275 280 295 304 306 314 314 313 320 321 317 317 317 316 314
201 258 207 187 216 228 207 184 190 214 228 229 232 242 243 243 244 233 190 148 218 211 204 228 227 208 210 216 218 228 213 189 225 232 206 150 135 140 143 200 191 173 153 164 216 210 242 259 227 236 261 262 252 257 263 263 267 262 251 245 238 228 224 224 227 225 225 237 252 265 270 270 272 276 282 293 301 306 312 310 313 317 316 316 316 315 313 313
193 196 189 201 236 239 221 183 182 207 221 220 229 233 228 232 238 236 200 180 207 202 198 225 234 202 204 218 219 228 224 213 237 241 173 143 171 163 181 197 152 159 175 175 201 240 233 210 133 229 267 265 245 245 260 266 269 268 260 249 241 237 238 237 233 227 229 242 251 257 263 267 267 272 280 290 301 311 310 309 314 316 314 314 313 312 313 315
209 205 186 197 230 215 214 199 181 204 224 219 222 223 217 225 231 235 229 210 213 207 187 213 230 219 214 225 225 233 237 224 233 225 153 159 189 172 175 171 143 155 178 181 180 207 221 210 92 99 265 270 249 238 254 271 278 272 263 249 236 234 237 237 232 224 224 235 246 250 254 259 263 272 285 295 300 304 307 311 315 311 310 312 310 310 314 316
209 218 198 208 239 216 213 211 193 209 230 216 206 212 220 228 226 226 238 227 217 217 203 201 217 219 226 236 235 233 224 112 94 98 117 119 103 116 146 163 161 161 165 176 179 173 191 196 148 162 250 293 23 181 271 301 290 274 255 229 225 229 233 237 236 227 223 226 237 245 246 252 269 286 292 292 294 300 308 312 309 305 306 307 306 308 313 316